owner,sensor,date,latitude,longitude,vertical_datum,wind_speed,wind_to_direction,wind_speed_of_gust,qcFlag 
ADCP,ioos:station:wmo:42887:1,2013-05-01T00:00:00Z,28.1910,-88.4960,48.2,5.5,152.0,99.0,'11111222,11111222,11144222' 
ADCP,ioos:station:wmo:42887:1,2013-05-01T00:20:00Z,28.1910,-88.4960,48.2,4.9,145.0,99.0,'11111222,11111222,11144222' 
ADCP,ioos:station:wmo:42887:1,2013-05-01T00:40:00Z,28.1910,-88.4960,48.2,4.8,144.0,99.0,'11111222,11111222,11144222' 
ADCP,ioos:station:wmo:42887:1,2013-05-01T01:00:00Z,28.1910,-88.4960,48.2,4.1,143.0,99.0,'11111222,11111222,11144222' 
ADCP,ioos:station:wmo:42887:1,2013-05-01T01:20:00Z,28.1910,-88.4960,48.2,3.6,130.0,99.0,'11111222,11111222,11144222' 
ADCP,ioos:station:wmo:42887:1,2013-05-01T01:40:00Z,28.1910,-88.4960,48.2,4.5,132.0,99.0,'11111222,11111222,11144222' 
ADCP,ioos:station:wmo:42887:1,2013-05-01T02:00:00Z,28.1910,-88.4960,48.2,5.5,127.0,99.0,'11111222,11111222,11144222' 
ADCP,ioos:station:wmo:42887:1,2013-05-01T02:20:00Z,28.1910,-88.4960,48.2,7.5,115.0,99.0,'11111222,11111222,11144222' 
ADCP,ioos:station:wmo:42887:1,2013-05-01T02:40:00Z,28.1910,-88.4960,48.2,8.3,114.0,99.0,'11111222,11111222,11144222' 
ADCP,ioos:station:wmo:42887:1,2013-05-01T03:00:00Z,28.1910,-88.4960,48.2,6.0,101.0,99.0,'11111222,11111222,11144222' 
ADCP,ioos:station:wmo:42887:1,2013-05-01T03:20:00Z,28.1910,-88.4960,48.2,8.2,100.0,99.0,'11111222,11111222,11144222' 
ADCP,ioos:station:wmo:42887:1,2013-05-01T03:40:00Z,28.1910,-88.4960,48.2,4.3,118.0,99.0,'11111222,11111222,11144222' 
ADCP,ioos:station:wmo:42887:1,2013-05-01T04:00:00Z,28.1910,-88.4960,48.2,5.9,122.0,99.0,'11111222,11111222,11144222' 
ADCP,ioos:station:wmo:42887:1,2013-05-01T04:20:00Z,28.1910,-88.4960,48.2,7.6,103.0,99.0,'11111222,11111222,11144222' 
ADCP,ioos:station:wmo:42887:1,2013-05-01T04:40:00Z,28.1910,-88.4960,48.2,9.1,111.0,99.0,'11111222,11111222,11144222' 
ADCP,ioos:station:wmo:42887:1,2013-05-01T05:00:00Z,28.1910,-88.4960,48.2,8.1,112.0,99.0,'11111222,11111222,11144222' 
ADCP,ioos:station:wmo:42887:1,2013-05-01T05:20:00Z,28.1910,-88.4960,48.2,6.2,123.0,99.0,'11111222,11111222,11144222' 
ADCP,ioos:station:wmo:42887:1,2013-05-01T05:40:00Z,28.1910,-88.4960,48.2,7.9,112.0,99.0,'11111222,11111222,11144222' 
ADCP,ioos:station:wmo:42887:1,2013-05-01T06:00:00Z,28.1910,-88.4960,48.2,7.6,116.0,99.0,'11111222,11111222,11144222' 
ADCP,ioos:station:wmo:42887:1,2013-05-01T06:20:00Z,28.1910,-88.4960,48.2,6.9,117.0,99.0,'11111222,11111222,11144222' 
ADCP,ioos:station:wmo:42887:1,2013-05-01T06:40:00Z,28.1910,-88.4960,48.2,6.2,104.0,99.0,'11111222,11111222,11144222' 
ADCP,ioos:station:wmo:42887:1,2013-05-01T07:00:00Z,28.1910,-88.4960,48.2,6.7,97.0,99.0,'11111222,11111222,11144222' 
ADCP,ioos:station:wmo:42887:1,2013-05-01T07:20:00Z,28.1910,-88.4960,48.2,7.5,107.0,99.0,'11111222,11111222,11144222' 
ADCP,ioos:station:wmo:42887:1,2013-05-01T07:40:00Z,28.1910,-88.4960,48.2,5.3,123.0,99.0,'11111222,11111222,11144222' 
ADCP,ioos:station:wmo:42887:1,2013-05-01T08:00:00Z,28.1910,-88.4960,48.2,6.0,127.0,99.0,'11111222,11111222,11144222' 
ADCP,ioos:station:wmo:42887:1,2013-05-01T08:20:00Z,28.1910,-88.4960,48.2,6.5,122.0,99.0,'11111222,11111222,11144222' 
ADCP,ioos:station:wmo:42887:1,2013-05-01T08:40:00Z,28.1910,-88.4960,48.2,6.6,105.0,99.0,'11111222,11111222,11144222' 
ADCP,ioos:station:wmo:42887:1,2013-05-01T09:00:00Z,28.1910,-88.4960,48.2,7.4,83.0,99.0,'11111222,11111222,11144222' 
ADCP,ioos:station:wmo:42887:1,2013-05-01T09:20:00Z,28.1910,-88.4960,48.2,7.5,98.0,99.0,'11111222,11111222,11144222' 
ADCP,ioos:station:wmo:42887:1,2013-05-01T09:40:00Z,28.1910,-88.4960,48.2,8.7,149.0,99.0,'11111222,11111222,11144222' 
ADCP,ioos:station:wmo:42887:1,2013-05-01T10:00:00Z,28.1910,-88.4960,48.2,7.9,151.0,99.0,'11111222,11111222,11144222' 
ADCP,ioos:station:wmo:42887:1,2013-05-01T10:20:00Z,28.1910,-88.4960,48.2,8.6,155.0,99.0,'11111222,11111222,11144222' 
ADCP,ioos:station:wmo:42887:1,2013-05-01T10:40:00Z,28.1910,-88.4960,48.2,8.3,150.0,99.0,'11111222,11111222,11144222' 
ADCP,ioos:station:wmo:42887:1,2013-05-01T11:00:00Z,28.1910,-88.4960,48.2,7.4,141.0,99.0,'11111222,11111222,11144222' 
ADCP,ioos:station:wmo:42887:1,2013-05-01T11:20:00Z,28.1910,-88.4960,48.2,7.4,150.0,99.0,'11111222,11111222,11144222' 
ADCP,ioos:station:wmo:42887:1,2013-05-01T11:40:00Z,28.1910,-88.4960,48.2,5.4,145.0,99.0,'11111222,11111222,11144222' 
ADCP,ioos:station:wmo:42887:1,2013-05-01T12:00:00Z,28.1910,-88.4960,48.2,6.2,149.0,99.0,'11111222,11111222,11144222' 
ADCP,ioos:station:wmo:42887:1,2013-05-01T12:20:00Z,28.1910,-88.4960,48.2,6.5,147.0,99.0,'11111222,11111222,11144222' 
ADCP,ioos:station:wmo:42887:1,2013-05-01T12:40:00Z,28.1910,-88.4960,48.2,6.0,149.0,99.0,'11111222,11111222,11144222' 
ADCP,ioos:station:wmo:42887:1,2013-05-01T13:20:00Z,28.1910,-88.4960,48.2,6.3,151.0,99.0,'11111222,11111222,11144222' 
ADCP,ioos:station:wmo:42887:1,2013-05-01T13:40:00Z,28.1910,-88.4960,48.2,6.5,145.0,99.0,'11111222,11111222,11144222' 
ADCP,ioos:station:wmo:42887:1,2013-05-01T14:00:00Z,28.1910,-88.4960,48.2,5.1,152.0,99.0,'11111222,11111222,11144222' 
ADCP,ioos:station:wmo:42887:1,2013-05-01T14:20:00Z,28.1910,-88.4960,48.2,6.7,160.0,99.0,'11111222,11111222,11144222' 
ADCP,ioos:station:wmo:42887:1,2013-05-01T14:40:00Z,28.1910,-88.4960,48.2,6.3,154.0,99.0,'11111222,11111222,11144222' 
ADCP,ioos:station:wmo:42887:1,2013-05-01T15:00:00Z,28.1910,-88.4960,48.2,6.6,153.0,99.0,'11111222,11111222,11144222' 
ADCP,ioos:station:wmo:42887:1,2013-05-01T15:20:00Z,28.1910,-88.4960,48.2,6.2,156.0,99.0,'11111222,11111222,11144222' 
ADCP,ioos:station:wmo:42887:1,2013-05-01T15:40:00Z,28.1910,-88.4960,48.2,5.8,158.0,99.0,'11111222,11111222,11144222' 
ADCP,ioos:station:wmo:42887:1,2013-05-01T16:00:00Z,28.1910,-88.4960,48.2,2.9,191.0,99.0,'11111222,11111222,11144222' 
ADCP,ioos:station:wmo:42887:1,2013-05-01T16:20:00Z,28.1910,-88.4960,48.2,4.8,192.0,99.0,'11111222,11111222,11144222' 
ADCP,ioos:station:wmo:42887:1,2013-05-01T16:40:00Z,28.1910,-88.4960,48.2,2.5,200.0,99.0,'11111222,11111222,11144222' 
ADCP,ioos:station:wmo:42887:1,2013-05-01T17:00:00Z,28.1910,-88.4960,48.2,4.1,217.0,99.0,'11111222,11111222,11144222' 
ADCP,ioos:station:wmo:42887:1,2013-05-01T17:20:00Z,28.1910,-88.4960,48.2,1.5,193.0,99.0,'11111222,11111222,11144222' 
ADCP,ioos:station:wmo:42887:1,2013-05-01T17:40:00Z,28.1910,-88.4960,48.2,4.5,219.0,99.0,'11111222,11111222,11144222' 
ADCP,ioos:station:wmo:42887:1,2013-05-01T18:00:00Z,28.1910,-88.4960,48.2,3.2,233.0,99.0,'11111222,11111222,11144222' 
ADCP,ioos:station:wmo:42887:1,2013-05-01T18:20:00Z,28.1910,-88.4960,48.2,2.7,219.0,99.0,'11111222,11111222,11144222' 
ADCP,ioos:station:wmo:42887:1,2013-05-01T18:40:00Z,28.1910,-88.4960,48.2,3.0,219.0,99.0,'11111222,11111222,11144222' 
ADCP,ioos:station:wmo:42887:1,2013-05-01T19:00:00Z,28.1910,-88.4960,48.2,1.8,230.0,99.0,'11111222,11111222,11144222' 
ADCP,ioos:station:wmo:42887:1,2013-05-01T19:20:00Z,28.1910,-88.4960,48.2,3.1,251.0,99.0,'11111222,11111222,11144222' 
ADCP,ioos:station:wmo:42887:1,2013-05-01T19:40:00Z,28.1910,-88.4960,48.2,3.4,258.0,99.0,'11111222,11111222,11144222' 
ADCP,ioos:station:wmo:42887:1,2013-05-01T20:00:00Z,28.1910,-88.4960,48.2,3.4,262.0,99.0,'11111222,11111222,11144222' 
ADCP,ioos:station:wmo:42887:1,2013-05-01T20:20:00Z,28.1910,-88.4960,48.2,2.1,290.0,99.0,'11111222,11111222,11144222' 
ADCP,ioos:station:wmo:42887:1,2013-05-01T20:40:00Z,28.1910,-88.4960,48.2,2.2,278.0,99.0,'11111222,11111222,11144222' 
ADCP,ioos:station:wmo:42887:1,2013-05-01T21:00:00Z,28.1910,-88.4960,48.2,2.5,260.0,99.0,'11111222,11111222,11144222' 
ADCP,ioos:station:wmo:42887:1,2013-05-01T21:20:00Z,28.1910,-88.4960,48.2,3.3,278.0,99.0,'11111222,11111222,11144222' 
ADCP,ioos:station:wmo:42887:1,2013-05-01T21:40:00Z,28.1910,-88.4960,48.2,2.4,277.0,99.0,'11111222,11111222,11144222' 
ADCP,ioos:station:wmo:42887:1,2013-05-01T22:00:00Z,28.1910,-88.4960,48.2,2.5,311.0,99.0,'11111222,11111222,11144222' 
ADCP,ioos:station:wmo:42887:1,2013-05-01T22:20:00Z,28.1910,-88.4960,48.2,3.3,311.0,99.0,'11111222,11111222,11144222' 
ADCP,ioos:station:wmo:42887:1,2013-05-01T22:40:00Z,28.1910,-88.4960,48.2,3.2,318.0,99.0,'11111222,11111222,11144222' 
ADCP,ioos:station:wmo:42887:1,2013-05-01T23:00:00Z,28.1910,-88.4960,48.2,0.6,305.0,99.0,'11111222,11111222,11144222' 
ADCP,ioos:station:wmo:42887:1,2013-05-01T23:20:00Z,28.1910,-88.4960,48.2,0.9,317.0,99.0,'11111222,11111222,11144222' 
ADCP,ioos:station:wmo:42887:1,2013-05-01T23:40:00Z,28.1910,-88.4960,48.2,0.0,224.0,99.0,'11111222,11111222,11144222' 
ADCP,ioos:station:wmo:42887:1,2013-05-02T00:00:00Z,28.1910,-88.4960,48.2,0.0,19.0,99.0,'11111222,11111222,11144222' 
ADCP,ioos:station:wmo:42887:1,2013-05-02T00:20:00Z,28.1910,-88.4960,48.2,2.7,296.0,99.0,'11111222,11111222,11144222' 
ADCP,ioos:station:wmo:42887:1,2013-05-02T00:40:00Z,28.1910,-88.4960,48.2,2.5,290.0,99.0,'11111222,11111222,11144222' 
ADCP,ioos:station:wmo:42887:1,2013-05-02T01:00:00Z,28.1910,-88.4960,48.2,3.4,293.0,99.0,'11111222,11111222,11144222' 
ADCP,ioos:station:wmo:42887:1,2013-05-02T01:20:00Z,28.1910,-88.4960,48.2,2.9,301.0,99.0,'11111222,11111222,11144222' 
ADCP,ioos:station:wmo:42887:1,2013-05-02T01:40:00Z,28.1910,-88.4960,48.2,3.1,291.0,99.0,'11111222,11111222,11144222' 
ADCP,ioos:station:wmo:42887:1,2013-05-02T02:00:00Z,28.1910,-88.4960,48.2,2.5,285.0,99.0,'11111222,11111222,11144222' 
ADCP,ioos:station:wmo:42887:1,2013-05-02T02:20:00Z,28.1910,-88.4960,48.2,2.8,281.0,99.0,'11111222,11111222,11144222' 
ADCP,ioos:station:wmo:42887:1,2013-05-02T02:40:00Z,28.1910,-88.4960,48.2,2.1,279.0,99.0,'11111222,11111222,11144222' 
ADCP,ioos:station:wmo:42887:1,2013-05-02T03:00:00Z,28.1910,-88.4960,48.2,0.8,280.0,99.0,'11111222,11111222,11144222' 
ADCP,ioos:station:wmo:42887:1,2013-05-02T03:20:00Z,28.1910,-88.4960,48.2,0.4,284.0,99.0,'11111222,11111222,11144222' 
ADCP,ioos:station:wmo:42887:1,2013-05-02T03:40:00Z,28.1910,-88.4960,48.2,1.0,286.0,99.0,'11111222,11111222,11144222' 
ADCP,ioos:station:wmo:42887:1,2013-05-02T04:00:00Z,28.1910,-88.4960,48.2,1.4,174.0,99.0,'11111222,11111222,11144222' 
ADCP,ioos:station:wmo:42887:1,2013-05-02T04:20:00Z,28.1910,-88.4960,48.2,3.3,174.0,99.0,'11111222,11111222,11144222' 
ADCP,ioos:station:wmo:42887:1,2013-05-02T04:40:00Z,28.1910,-88.4960,48.2,1.3,159.0,99.0,'11111222,11111222,11144222' 
ADCP,ioos:station:wmo:42887:1,2013-05-02T05:00:00Z,28.1910,-88.4960,48.2,2.2,180.0,99.0,'11111222,11111222,11144222' 
ADCP,ioos:station:wmo:42887:1,2013-05-02T05:20:00Z,28.1910,-88.4960,48.2,3.6,95.0,99.0,'11111222,11111222,11144222' 
ADCP,ioos:station:wmo:42887:1,2013-05-02T05:40:00Z,28.1910,-88.4960,48.2,2.2,99.0,99.0,'11111222,11111222,11144222' 
ADCP,ioos:station:wmo:42887:1,2013-05-02T06:00:00Z,28.1910,-88.4960,48.2,1.1,125.0,99.0,'11111222,11111222,11144222' 
ADCP,ioos:station:wmo:42887:1,2013-05-02T06:20:00Z,28.1910,-88.4960,48.2,2.3,190.0,99.0,'11111222,11111222,11144222' 
ADCP,ioos:station:wmo:42887:1,2013-05-02T06:40:00Z,28.1910,-88.4960,48.2,0.0,100.0,99.0,'11111222,11111222,11144222' 
ADCP,ioos:station:wmo:42887:1,2013-05-02T07:00:00Z,28.1910,-88.4960,48.2,3.6,173.0,99.0,'11111222,11111222,11144222' 
ADCP,ioos:station:wmo:42887:1,2013-05-02T07:20:00Z,28.1910,-88.4960,48.2,2.9,177.0,99.0,'11111222,11111222,11144222' 
ADCP,ioos:station:wmo:42887:1,2013-05-02T07:40:00Z,28.1910,-88.4960,48.2,2.0,169.0,99.0,'11111222,11111222,11144222' 
ADCP,ioos:station:wmo:42887:1,2013-05-02T08:00:00Z,28.1910,-88.4960,48.2,0.0,340.0,99.0,'11111222,11111222,11144222' 
ADCP,ioos:station:wmo:42887:1,2013-05-02T08:20:00Z,28.1910,-88.4960,48.2,1.7,113.0,99.0,'11111222,11111222,11144222' 
ADCP,ioos:station:wmo:42887:1,2013-05-02T08:40:00Z,28.1910,-88.4960,48.2,0.3,176.0,99.0,'11111222,11111222,11144222' 
ADCP,ioos:station:wmo:42887:1,2013-05-02T09:00:00Z,28.1910,-88.4960,48.2,0.5,283.0,99.0,'11111222,11111222,11144222' 
ADCP,ioos:station:wmo:42887:1,2013-05-02T09:20:00Z,28.1910,-88.4960,48.2,0.0,340.0,99.0,'11111222,11111222,11144222' 
ADCP,ioos:station:wmo:42887:1,2013-05-02T09:40:00Z,28.1910,-88.4960,48.2,1.3,276.0,99.0,'11111222,11111222,11144222' 
ADCP,ioos:station:wmo:42887:1,2013-05-02T10:00:00Z,28.1910,-88.4960,48.2,3.3,330.0,99.0,'11111222,11111222,11144222' 
ADCP,ioos:station:wmo:42887:1,2013-05-02T10:20:00Z,28.1910,-88.4960,48.2,4.6,334.0,99.0,'11111222,11111222,11144222' 
ADCP,ioos:station:wmo:42887:1,2013-05-02T10:40:00Z,28.1910,-88.4960,48.2,4.4,334.0,99.0,'11111222,11111222,11144222' 
ADCP,ioos:station:wmo:42887:1,2013-05-02T11:00:00Z,28.1910,-88.4960,48.2,5.7,351.0,99.0,'11111222,11111222,11144222' 
ADCP,ioos:station:wmo:42887:1,2013-05-02T11:20:00Z,28.1910,-88.4960,48.2,6.1,1.0,99.0,'11111222,11111222,11144222' 
ADCP,ioos:station:wmo:42887:1,2013-05-02T11:40:00Z,28.1910,-88.4960,48.2,8.4,5.0,99.0,'11111222,11111222,11144222' 
ADCP,ioos:station:wmo:42887:1,2013-05-02T12:00:00Z,28.1910,-88.4960,48.2,3.7,32.0,99.0,'11111222,11111222,11144222' 
ADCP,ioos:station:wmo:42887:1,2013-05-02T12:20:00Z,28.1910,-88.4960,48.2,4.7,65.0,99.0,'11111222,11111222,11144222' 
ADCP,ioos:station:wmo:42887:1,2013-05-02T12:40:00Z,28.1910,-88.4960,48.2,2.5,348.0,99.0,'11111222,11111222,11144222' 
ADCP,ioos:station:wmo:42887:1,2013-05-02T13:00:00Z,28.1910,-88.4960,48.2,4.1,28.0,99.0,'11111222,11111222,11144222' 
ADCP,ioos:station:wmo:42887:1,2013-05-02T13:20:00Z,28.1910,-88.4960,48.2,4.8,30.0,99.0,'11111222,11111222,11144222' 
ADCP,ioos:station:wmo:42887:1,2013-05-02T13:40:00Z,28.1910,-88.4960,48.2,4.1,62.0,99.0,'11111222,11111222,11144222' 
ADCP,ioos:station:wmo:42887:1,2013-05-02T14:00:00Z,28.1910,-88.4960,48.2,3.1,30.0,99.0,'11111222,11111222,11144222' 
ADCP,ioos:station:wmo:42887:1,2013-05-02T14:20:00Z,28.1910,-88.4960,48.2,5.6,16.0,99.0,'11111222,11111222,11144222' 
ADCP,ioos:station:wmo:42887:1,2013-05-02T14:40:00Z,28.1910,-88.4960,48.2,5.0,42.0,99.0,'11111222,11111222,11144222' 
ADCP,ioos:station:wmo:42887:1,2013-05-02T15:00:00Z,28.1910,-88.4960,48.2,4.5,49.0,99.0,'11111222,11111222,11144222' 
ADCP,ioos:station:wmo:42887:1,2013-05-02T15:20:00Z,28.1910,-88.4960,48.2,4.8,51.0,99.0,'11111222,11111222,11144222' 
ADCP,ioos:station:wmo:42887:1,2013-05-02T15:40:00Z,28.1910,-88.4960,48.2,3.5,174.0,99.0,'11111222,11111222,11144222' 
ADCP,ioos:station:wmo:42887:1,2013-05-02T16:00:00Z,28.1910,-88.4960,48.2,5.6,227.0,99.0,'11111222,11111222,11144222' 
ADCP,ioos:station:wmo:42887:1,2013-05-02T16:20:00Z,28.1910,-88.4960,48.2,4.8,235.0,99.0,'11111222,11111222,11144222' 
ADCP,ioos:station:wmo:42887:1,2013-05-02T16:40:00Z,28.1910,-88.4960,48.2,5.8,240.0,99.0,'11111222,11111222,11144222' 
ADCP,ioos:station:wmo:42887:1,2013-05-02T17:00:00Z,28.1910,-88.4960,48.2,4.2,251.0,99.0,'11111222,11111222,11144222' 
ADCP,ioos:station:wmo:42887:1,2013-05-02T17:20:00Z,28.1910,-88.4960,48.2,1.4,252.0,99.0,'11111222,11111222,11144222' 
ADCP,ioos:station:wmo:42887:1,2013-05-02T17:40:00Z,28.1910,-88.4960,48.2,0.3,248.0,99.0,'11111222,11111222,11144222' 
ADCP,ioos:station:wmo:42887:1,2013-05-02T18:00:00Z,28.1910,-88.4960,48.2,0.4,195.0,99.0,'11111222,11111222,11144222' 
ADCP,ioos:station:wmo:42887:1,2013-05-02T18:20:00Z,28.1910,-88.4960,48.2,0.0,267.0,99.0,'11111222,11111222,11144222' 
ADCP,ioos:station:wmo:42887:1,2013-05-02T18:40:00Z,28.1910,-88.4960,48.2,0.0,41.0,99.0,'11111222,11111222,11144222' 
ADCP,ioos:station:wmo:42887:1,2013-05-02T19:00:00Z,28.1910,-88.4960,48.2,0.3,107.0,99.0,'11111222,11111222,11144222' 
ADCP,ioos:station:wmo:42887:1,2013-05-02T19:20:00Z,28.1910,-88.4960,48.2,3.4,104.0,99.0,'11111222,11111222,11144222' 
ADCP,ioos:station:wmo:42887:1,2013-05-02T19:40:00Z,28.1910,-88.4960,48.2,3.4,96.0,99.0,'11111222,11111222,11144222' 
ADCP,ioos:station:wmo:42887:1,2013-05-02T20:00:00Z,28.1910,-88.4960,48.2,4.2,104.0,99.0,'11111222,11111222,11144222' 
ADCP,ioos:station:wmo:42887:1,2013-05-02T20:20:00Z,28.1910,-88.4960,48.2,4.1,120.0,99.0,'11111222,11111222,11144222' 
ADCP,ioos:station:wmo:42887:1,2013-05-02T20:40:00Z,28.1910,-88.4960,48.2,4.6,99.0,99.0,'11111222,11111222,11144222' 
ADCP,ioos:station:wmo:42887:1,2013-05-02T21:00:00Z,28.1910,-88.4960,48.2,4.9,101.0,99.0,'11111222,11111222,11144222' 
ADCP,ioos:station:wmo:42887:1,2013-05-02T21:20:00Z,28.1910,-88.4960,48.2,6.2,92.0,99.0,'11111222,11111222,11144222' 
ADCP,ioos:station:wmo:42887:1,2013-05-02T21:40:00Z,28.1910,-88.4960,48.2,6.1,98.0,99.0,'11111222,11111222,11144222' 
ADCP,ioos:station:wmo:42887:1,2013-05-02T22:00:00Z,28.1910,-88.4960,48.2,7.9,100.0,99.0,'11111222,11111222,11144222' 
ADCP,ioos:station:wmo:42887:1,2013-05-02T22:20:00Z,28.1910,-88.4960,48.2,7.7,96.0,99.0,'11111222,11111222,11144222' 
ADCP,ioos:station:wmo:42887:1,2013-05-02T22:40:00Z,28.1910,-88.4960,48.2,7.4,104.0,99.0,'11111222,11111222,11144222' 
ADCP,ioos:station:wmo:42887:1,2013-05-02T23:00:00Z,28.1910,-88.4960,48.2,6.9,85.0,99.0,'11111222,11111222,11144222' 
ADCP,ioos:station:wmo:42887:1,2013-05-02T23:20:00Z,28.1910,-88.4960,48.2,6.9,96.0,99.0,'11111222,11111222,11144222' 
ADCP,ioos:station:wmo:42887:1,2013-05-02T23:40:00Z,28.1910,-88.4960,48.2,7.0,94.0,99.0,'11111222,11111222,11144222' 
ADCP,ioos:station:wmo:42887:1,2013-05-03T00:00:00Z,28.1910,-88.4960,48.2,7.5,97.0,99.0,'11111222,11111222,11144222' 
ADCP,ioos:station:wmo:42887:1,2013-05-03T00:20:00Z,28.1910,-88.4960,48.2,6.9,102.0,99.0,'11111222,11111222,11144222' 
ADCP,ioos:station:wmo:42887:1,2013-05-03T00:40:00Z,28.1910,-88.4960,48.2,6.4,98.0,99.0,'11111222,11111222,11144222' 
ADCP,ioos:station:wmo:42887:1,2013-05-03T01:00:00Z,28.1910,-88.4960,48.2,5.5,103.0,99.0,'11111222,11111222,11144222' 
ADCP,ioos:station:wmo:42887:1,2013-05-03T01:20:00Z,28.1910,-88.4960,48.2,5.6,109.0,99.0,'11111222,11111222,11144222' 
ADCP,ioos:station:wmo:42887:1,2013-05-03T01:40:00Z,28.1910,-88.4960,48.2,3.8,108.0,99.0,'11111222,11111222,11144222' 
ADCP,ioos:station:wmo:42887:1,2013-05-03T02:00:00Z,28.1910,-88.4960,48.2,5.2,101.0,99.0,'11111222,11111222,11144222' 
ADCP,ioos:station:wmo:42887:1,2013-05-03T02:20:00Z,28.1910,-88.4960,48.2,6.2,105.0,99.0,'11111222,11111222,11144222' 
ADCP,ioos:station:wmo:42887:1,2013-05-03T02:40:00Z,28.1910,-88.4960,48.2,6.2,97.0,99.0,'11111222,11111222,11144222' 
ADCP,ioos:station:wmo:42887:1,2013-05-03T03:00:00Z,28.1910,-88.4960,48.2,6.4,104.0,99.0,'11111222,11111222,11144222' 
ADCP,ioos:station:wmo:42887:1,2013-05-03T03:20:00Z,28.1910,-88.4960,48.2,5.5,101.0,99.0,'11111222,11111222,11144222' 
ADCP,ioos:station:wmo:42887:1,2013-05-03T03:40:00Z,28.1910,-88.4960,48.2,5.9,101.0,99.0,'11111222,11111222,11144222' 
ADCP,ioos:station:wmo:42887:1,2013-05-03T04:00:00Z,28.1910,-88.4960,48.2,5.9,112.0,99.0,'11111222,11111222,11144222' 
ADCP,ioos:station:wmo:42887:1,2013-05-03T04:20:00Z,28.1910,-88.4960,48.2,5.8,97.0,99.0,'11111222,11111222,11144222' 
ADCP,ioos:station:wmo:42887:1,2013-05-03T04:40:00Z,28.1910,-88.4960,48.2,4.4,77.0,99.0,'11111222,11111222,11144222' 
ADCP,ioos:station:wmo:42887:1,2013-05-03T05:00:00Z,28.1910,-88.4960,48.2,4.8,88.0,99.0,'11111222,11111222,11144222' 
ADCP,ioos:station:wmo:42887:1,2013-05-03T05:20:00Z,28.1910,-88.4960,48.2,5.1,87.0,99.0,'11111222,11111222,11144222' 
ADCP,ioos:station:wmo:42887:1,2013-05-03T05:40:00Z,28.1910,-88.4960,48.2,5.2,75.0,99.0,'11111222,11111222,11144222' 
ADCP,ioos:station:wmo:42887:1,2013-05-03T06:00:00Z,28.1910,-88.4960,48.2,4.5,80.0,99.0,'11111222,11111222,11144222' 
ADCP,ioos:station:wmo:42887:1,2013-05-03T06:20:00Z,28.1910,-88.4960,48.2,4.0,78.0,99.0,'11111222,11111222,11144222' 
ADCP,ioos:station:wmo:42887:1,2013-05-03T06:40:00Z,28.1910,-88.4960,48.2,3.7,67.0,99.0,'11111222,11111222,11144222' 
ADCP,ioos:station:wmo:42887:1,2013-05-03T07:00:00Z,28.1910,-88.4960,48.2,3.7,72.0,99.0,'11111222,11111222,11144222' 
ADCP,ioos:station:wmo:42887:1,2013-05-03T07:20:00Z,28.1910,-88.4960,48.2,3.1,67.0,99.0,'11111222,11111222,11144222' 
ADCP,ioos:station:wmo:42887:1,2013-05-03T07:40:00Z,28.1910,-88.4960,48.2,3.0,73.0,99.0,'11111222,11111222,11144222' 
ADCP,ioos:station:wmo:42887:1,2013-05-03T08:00:00Z,28.1910,-88.4960,48.2,3.5,73.0,99.0,'11111222,11111222,11144222' 
ADCP,ioos:station:wmo:42887:1,2013-05-03T08:20:00Z,28.1910,-88.4960,48.2,4.1,72.0,99.0,'11111222,11111222,11144222' 
ADCP,ioos:station:wmo:42887:1,2013-05-03T08:40:00Z,28.1910,-88.4960,48.2,4.5,68.0,99.0,'11111222,11111222,11144222' 
ADCP,ioos:station:wmo:42887:1,2013-05-03T09:00:00Z,28.1910,-88.4960,48.2,3.5,76.0,99.0,'11111222,11111222,11144222' 
ADCP,ioos:station:wmo:42887:1,2013-05-03T09:20:00Z,28.1910,-88.4960,48.2,2.7,59.0,99.0,'11111222,11111222,11144222' 
ADCP,ioos:station:wmo:42887:1,2013-05-03T09:40:00Z,28.1910,-88.4960,48.2,3.9,77.0,99.0,'11111222,11111222,11144222' 
ADCP,ioos:station:wmo:42887:1,2013-05-03T10:00:00Z,28.1910,-88.4960,48.2,3.5,72.0,99.0,'11111222,11111222,11144222' 
ADCP,ioos:station:wmo:42887:1,2013-05-03T10:20:00Z,28.1910,-88.4960,48.2,3.3,72.0,99.0,'11111222,11111222,11144222' 
ADCP,ioos:station:wmo:42887:1,2013-05-03T10:40:00Z,28.1910,-88.4960,48.2,4.0,63.0,99.0,'11111222,11111222,11144222' 
ADCP,ioos:station:wmo:42887:1,2013-05-03T11:00:00Z,28.1910,-88.4960,48.2,3.5,74.0,99.0,'11111222,11111222,11144222' 
ADCP,ioos:station:wmo:42887:1,2013-05-03T11:20:00Z,28.1910,-88.4960,48.2,0.3,298.0,99.0,'11111222,11111222,11144222' 
ADCP,ioos:station:wmo:42887:1,2013-05-03T11:40:00Z,28.1910,-88.4960,48.2,0.3,27.0,99.0,'11111222,11111222,11144222' 
ADCP,ioos:station:wmo:42887:1,2013-05-03T12:00:00Z,28.1910,-88.4960,48.2,2.0,56.0,99.0,'11111222,11111222,11144222' 
ADCP,ioos:station:wmo:42887:1,2013-05-03T12:20:00Z,28.1910,-88.4960,48.2,2.7,63.0,99.0,'11111222,11111222,11144222' 
ADCP,ioos:station:wmo:42887:1,2013-05-03T12:40:00Z,28.1910,-88.4960,48.2,3.3,60.0,99.0,'11111222,11111222,11144222' 
ADCP,ioos:station:wmo:42887:1,2013-05-03T13:00:00Z,28.1910,-88.4960,48.2,3.6,69.0,99.0,'11111222,11111222,11144222' 
ADCP,ioos:station:wmo:42887:1,2013-05-03T13:20:00Z,28.1910,-88.4960,48.2,3.3,67.0,99.0,'11111222,11111222,11144222' 
ADCP,ioos:station:wmo:42887:1,2013-05-03T13:40:00Z,28.1910,-88.4960,48.2,2.4,61.0,99.0,'11111222,11111222,11144222' 
ADCP,ioos:station:wmo:42887:1,2013-05-03T14:00:00Z,28.1910,-88.4960,48.2,1.3,69.0,99.0,'11111222,11111222,11144222' 
ADCP,ioos:station:wmo:42887:1,2013-05-03T14:20:00Z,28.1910,-88.4960,48.2,0.0,58.0,99.0,'11111222,11111222,11144222' 
ADCP,ioos:station:wmo:42887:1,2013-05-03T14:40:00Z,28.1910,-88.4960,48.2,0.1,356.0,99.0,'11111222,11111222,11144222' 
ADCP,ioos:station:wmo:42887:1,2013-05-03T15:00:00Z,28.1910,-88.4960,48.2,0.2,38.0,99.0,'11111222,11111222,11144222' 
ADCP,ioos:station:wmo:42887:1,2013-05-03T15:20:00Z,28.1910,-88.4960,48.2,0.4,47.0,99.0,'11111222,11111222,11144222' 
ADCP,ioos:station:wmo:42887:1,2013-05-03T15:40:00Z,28.1910,-88.4960,48.2,0.8,42.0,99.0,'11111222,11111222,11144222' 
ADCP,ioos:station:wmo:42887:1,2013-05-03T16:00:00Z,28.1910,-88.4960,48.2,1.0,55.0,99.0,'11111222,11111222,11144222' 
ADCP,ioos:station:wmo:42887:1,2013-05-03T16:20:00Z,28.1910,-88.4960,48.2,0.5,75.0,99.0,'11111222,11111222,11144222' 
ADCP,ioos:station:wmo:42887:1,2013-05-03T16:40:00Z,28.1910,-88.4960,48.2,1.8,27.0,99.0,'11111222,11111222,11144222' 
ADCP,ioos:station:wmo:42887:1,2013-05-03T17:00:00Z,28.1910,-88.4960,48.2,0.1,120.0,99.0,'11111222,11111222,11144222' 
ADCP,ioos:station:wmo:42887:1,2013-05-03T17:20:00Z,28.1910,-88.4960,48.2,0.1,324.0,99.0,'11111222,11111222,11144222' 
ADCP,ioos:station:wmo:42887:1,2013-05-03T17:40:00Z,28.1910,-88.4960,48.2,0.1,257.0,99.0,'11111222,11111222,11144222' 
ADCP,ioos:station:wmo:42887:1,2013-05-03T18:00:00Z,28.1910,-88.4960,48.2,0.2,217.0,99.0,'11111222,11111222,11144222' 
ADCP,ioos:station:wmo:42887:1,2013-05-03T18:20:00Z,28.1910,-88.4960,48.2,0.1,69.0,99.0,'11111222,11111222,11144222' 
ADCP,ioos:station:wmo:42887:1,2013-05-03T18:40:00Z,28.1910,-88.4960,48.2,0.0,9.0,99.0,'11111222,11111222,11144222' 
ADCP,ioos:station:wmo:42887:1,2013-05-03T19:00:00Z,28.1910,-88.4960,48.2,0.5,321.0,99.0,'11111222,11111222,11144222' 
ADCP,ioos:station:wmo:42887:1,2013-05-03T19:20:00Z,28.1910,-88.4960,48.2,0.0,223.0,99.0,'11111222,11111222,11144222' 
ADCP,ioos:station:wmo:42887:1,2013-05-03T19:40:00Z,28.1910,-88.4960,48.2,0.2,117.0,99.0,'11111222,11111222,11144222' 